Location: Zagreb
(45.8000°N, 16.0000°E)
Time: 15:41:39
(UTC+02:00)

Transit 2A Rocket - Pass Details

Date: 11 August 2022
Orbit: 593 x 907 km, 66.7° (Epoch: 25 September)

Event Time Altitude Azimuth Distance (km) Brightness Sun altitude
Rises 21:25:59 0° 266° (W) 2,932 8.9 -12.2°
Reaches altitude 10° 21:29:23 10° 293° (WNW) 1,981 8.5 -12.6°
Maximum altitude 21:31:41 14° 324° (NW) 1,721 8.0 -13.0°
Drops below altitude 10° 21:33:57 10° 356° (N) 1,946 7.7 -13.3°
Sets 21:37:14 0° 23° (NNE) 2,841 8.2 -13.7°
